Theta_e
305 305 304 304 304 304 304 305 305 304 304 304 303 299 300 301 301 301 303 306 308 308 308 308 309 310 310 310 311 309 309 311 313 313 313 313 314 314 318 317 319 320 322 321 322 323 326 316 321 327 324 327 325 325
304 305 304 304 305 305 305 304 305 305 304 304 304 303 301 300 301 300 302 306 306 307 308 306 307 308 309 308 310 306 307 309 311 312 312 312 315 315 316 320 316 319 317 319 321 318 313 317 318 318 320 323 323 323
306 305 305 304 304 303 303 304 303 304 304 304 303 303 303 301 301 301 301 304 306 306 309 311 311 310 310 309 308 308 306 306 309 308 309 310 313 314 316 317 316 314 313 317 318 315 315 317 317 317 318 320 321 322
305 304 304 303 302 302 302 302 303 303 304 304 303 303 303 301 300 300 302 305 306 306 309 311 311 310 310 310 308 307 306 305 305 307 309 312 315 315 316 316 314 314 314 315 316 314 316 316 316 315 317 318 319 321
302 302 302 301 301 300 300 300 301 302 303 303 303 304 301 300 299 301 302 305 307 307 311 310 308 311 311 310 310 309 307 305 307 311 312 316 312 313 316 315 316 314 314 316 317 314 315 315 315 315 317 318 319 319
300 299 299 299 299 298 300 300 301 302 302 302 303 303 298 298 300 305 309 309 307 308 309 311 311 312 311 311 311 312 312 308 309 312 314 313 313 313 317 317 313 312 312 313 313 313 314 313 315 313 315 317 318 319
295 297 298 298 298 299 300 300 300 301 302 302 304 302 299 299 304 310 310 308 308 308 308 311 313 313 312 312 313 314 313 313 314 313 315 314 315 317 316 315 312 311 312 312 312 313 314 313 313 314 315 316 317 318
294 294 296 297 298 298 300 300 301 301 301 303 304 300 300 305 305 309 308 306 308 309 310 311 313 314 314 314 313 313 314 316 316 314 313 315 314 313 315 312 312 312 312 313 313 313 313 314 315 315 314 316 317 318
294 293 295 295 295 297 299 300 300 301 302 303 303 303 304 307 311 309 307 306 307 309 312 311 315 318 313 313 313 313 313 316 315 315 314 315 315 315 313 313 313 313 312 312 313 312 313 314 313 314 315 315 316 317
294 295 294 295 295 296 297 298 299 301 302 305 306 309 313 308 304 307 307 309 307 308 309 311 312 316 313 313 313 314 314 316 318 317 314 317 315 314 313 313 313 313 314 312 313 314 314 315 315 315 315 315 316 316
294 294 295 295 295 297 298 298 300 301 304 306 308 310 306 304 306 310 311 311 311 312 311 312 313 314 313 314 314 312 315 314 316 317 315 317 316 312 312 312 312 311 311 313 313 313 314 314 315 314 314 313 315 315
293 294 294 294 294 295 297 298 300 300 303 302 302 301 303 306 309 310 313 314 315 315 314 314 313 313 314 312 314 313 314 314 315 315 315 317 314 311 310 311 311 311 310 310 312 313 312 312 312 313 312 312 312 313
293 293 293 294 294 294 297 298 298 298 300 302 302 303 306 309 314 313 313 313 313 312 311 311 312 314 313 311 313 313 312 314 314 317 317 317 315 313 312 312 311 311 310 310 312 311 311 312 312 311 311 310 311 312
293 293 293 294 297 298 297 297 298 299 300 307 308 311 310 312 313 314 314 313 312 311 310 310 311 313 313 313 313 313 313 315 315 317 316 317 314 313 312 311 311 311 311 311 311 312 312 311 312 311 310 310 309 310
292 292 294 297 296 296 296 296 298 300 304 308 310 311 312 312 313 313 313 312 311 310 310 311 311 311 314 313 312 312 313 314 315 317 317 318 315 315 315 313 311 311 311 311 311 311 311 311 311 311 310 309 308 308
291 293 296 295 295 295 294 296 299 301 304 307 308 312 313 314 314 313 312 312 311 311 311 311 310 311 313 314 314 313 312 316 321 320 315 316 314 313 315 313 313 312 311 310 310 310 309 310 311 311 309 310 309 308
291 297 295 294 293 293 296 299 302 304 305 306 309 310 311 312 313 314 315 314 312 311 311 312 315 314 312 315 315 316 318 317 317 314 313 315 313 312 312 313 314 312 313 311 310 310 310 309 310 310 311 309 308 307
293 294 293 292 293 296 300 301 303 304 305 306 307 308 308 310 312 314 313 314 313 311 311 312 312 313 314 315 314 318 318 314 313 312 312 315 312 311 311 312 310 310 311 310 310 310 310 308 309 309 309 308 308 307
292 291 291 291 293 296 300 302 302 305 305 306 307 308 309 310 312 313 313 313 314 312 311 311 311 312 313 312 312 313 314 313 313 311 313 312 312 311 311 310 310 310 310 310 309 310 310 308 308 308 308 308 308 306
291 292 294 295 296 298 299 302 303 305 306 307 307 308 309 310 311 312 313 313 313 313 312 312 312 312 312 312 312 311 313 313 312 312 312 313 312 313 311 310 310 310 310 309 309 308 309 309 308 308 307 307 307 306
293 294 294 295 297 297 300 301 303 305 305 306 306 307 308 309 310 312 312 312 313 315 314 313 313 312 312 311 311 311 311 311 311 311 312 312 313 313 310 311 310 310 309 309 309 308 308 309 307 307 307 307 306 305
292 293 294 294 296 298 299 298 301 302 302 304 306 305 307 309 309 308 309 311 313 313 312 312 312 311 313 313 313 312 311 310 310 310 310 310 312 311 312 311 310 311 309 309 309 308 309 308 305 306 306 306 306 305
293 294 294 294 296 299 299 299 300 301 303 303 306 306 308 310 309 309 311 311 310 310 311 312 312 312 312 312 311 310 310 310 310 311 311 310 310 310 310 310 310 310 310 309 308 307 307 306 305 305 305 305 305 304
294 295 298 298 298 298 298 299 302 302 303 305 306 304 305 307 307 309 312 311 310 310 310 311 311 311 311 310 310 310 310 309 310 310 309 310 311 311 310 310 309 309 308 307 307 306 306 306 306 305 304 304 304 303
294 296 297 298 298 298 297 298 299 303 302 303 303 304 306 306 307 309 309 309 309 309 310 311 310 309 309 308 309 310 309 309 310 310 309 310 310 310 309 309 308 307 307 306 306 306 306 305 305 304 304 303 303 303
295 294 297 297 297 298 298 298 298 300 301 301 303 304 305 305 306 306 307 308 309 310 310 309 309 308 308 308 308 308 309 308 308 309 308 310 310 310 310 310 308 307 305 305 306 306 304 304 304 303 303 300 299 301
293 293 294 296 299 298 299 300 301 301 301 302 304 307 306 307 307 308 310 306 310 309 308 307 307 307 307 308 307 308 308 307 306 307 307 309 309 308 309 308 308 306 306 305 304 303 304 304 304 303 302 302 300 299
294 293 293 295 295 297 296 297 298 299 300 301 305 304 308 307 305 303 305 303 303 303 306 306 305 305 305 305 306 306 308 308 307 307 308 309 308 307 306 306 304 305 304 303 303 303 302 302 302 302 301 300 299 298
294 295 295 295 295 296 297 297 297 298 298 300 301 301 301 302 302 303 304 304 303 303 304 304 304 304 304 304 305 306 309 309 310 310 309 310 309 306 305 305 303 303 303 301 302 302 301 301 301 300 299 299 298 296
295 295 296 297 297 296 296 297 297 298 299 299 299 300 300 301 299 297 298 299 301 302 302 303 304 305 306 305 306 307 307 307 307 306 307 309 308 306 305 305 303 302 302 301 300 297 297 298 297 298 299 296 293 292
295 296 297 298 297 297 297 297 298 298 298 298 298 299 299 300 297 294 293 295 298 301 301 301 304 301 303 303 303 305 301 299 299 300 302 304 305 305 305 304 303 303 303 302 301 300 299 300 298 297 295 293 291 291
298 298 298 299 299 298 298 298 300 299 299 299 299 299 299 299 299 293 291 291 292 292 292 293 298 299 298 299 299 298 296 296 298 298 300 301 301 304 304 303 302 302 302 301 301 300 299 297 295 294 293 292 291 290
299 299 299 299 299 298 299 299 299 299 299 300 299 300 301 299 296 294 291 290 290 289 290 290 291 293 295 296 296 295 295 294 294 296 297 298 298 298 298 298 298 299 298 298 297 297 295 294 293 292 291 291 290 289
Wind_Speed
28 28 27 27 27 28 28 28 27 27 26 27 26 23 22 19 17 13 18 18 12 4 16 19 14 17 15 7 4 7 9 7 4 6 4 4 4 5 4 4 5 3 4 1 3 4 5 19 14 9 7 4 11 12
27 27 27 26 24 26 29 29 29 29 28 28 27 25 22 20 18 14 14 12 16 5 14 36 33 27 20 10 4 1 4 9 3 3 4 4 2 3 5 3 8 4 4 3 5 2 6 13 8 12 11 10 13 12
27 27 27 26 23 26 30 30 29 29 28 29 28 26 24 22 21 16 19 16 6 4 13 11 7 12 8 9 8 3 2 2 3 3 2 2 4 2 3 3 4 6 12 3 1 5 10 11 14 13 16 15 16 11
27 26 26 26 27 27 27 30 30 29 28 30 30 28 25 24 23 17 16 13 11 5 4 8 4 1 7 8 9 7 2 3 4 4 3 4 4 5 2 1 3 3 5 8 4 8 9 9 15 16 9 11 12 12
24 25 27 28 26 26 27 29 29 29 30 31 30 28 27 28 23 19 18 17 16 6 4 11 27 15 9 11 11 12 7 3 3 3 4 3 3 4 3 1 3 4 5 2 1 6 5 8 10 13 9 7 7 8
26 27 25 25 26 28 27 27 27 28 29 31 31 30 31 26 15 8 3 7 16 17 3 4 8 5 6 9 10 12 9 6 4 3 6 5 5 4 3 2 10 11 11 11 6 8 8 7 7 8 10 8 6 8
23 23 24 24 25 26 26 25 26 28 30 32 29 30 29 21 7 8 4 1 11 10 2 4 4 3 13 7 4 4 11 6 5 5 2 4 5 5 3 3 13 10 10 11 11 11 11 8 7 10 9 9 10 6
24 23 23 24 24 24 24 25 25 27 31 32 28 26 21 9 7 11 6 7 8 6 3 3 5 2 3 2 3 3 4 4 4 4 3 3 2 3 1 6 10 11 10 7 12 7 9 9 13 11 9 8 9 9
22 23 23 25 25 23 24 24 25 28 32 29 23 22 5 4 3 1 2 4 7 5 3 4 6 3 6 3 2 3 3 3 2 3 1 2 3 3 3 6 6 6 1 8 10 6 8 11 11 11 13 14 9 9
19 21 22 22 22 23 23 23 26 29 28 18 11 5 3 3 5 1 4 4 2 3 4 6 11 6 3 1 1 3 2 3 2 3 4 2 1 3 4 4 4 10 7 4 11 11 9 10 8 9 12 13 14 14
19 20 22 22 21 21 21 21 23 24 11 9 5 3 9 6 5 3 3 4 5 4 5 6 12 7 1 3 0 2 3 3 2 3 2 3 2 2 5 4 3 6 8 4 2 6 7 9 10 8 9 12 14 15
19 21 22 22 21 20 20 21 17 11 11 10 15 16 8 3 4 3 4 4 7 5 4 8 4 4 3 3 1 2 2 4 3 7 2 2 5 6 4 4 6 8 8 7 7 5 5 8 10 9 9 10 11 15
21 22 23 23 20 18 13 13 14 19 19 2 3 2 3 4 5 6 6 4 4 4 4 3 4 3 4 2 1 1 2 4 7 3 1 3 7 6 5 4 8 7 6 5 10 15 10 14 13 12 7 14 15 15
22 24 24 20 13 6 10 18 19 17 6 3 4 4 6 6 6 6 8 7 0 1 4 2 3 3 1 3 2 2 4 1 3 3 1 6 2 7 4 3 4 6 4 10 11 13 12 8 15 15 17 14 11 13
23 24 20 7 10 14 19 21 17 7 5 4 4 5 7 9 9 7 7 8 3 1 5 3 2 2 2 3 3 0 2 3 4 3 1 6 7 9 5 3 1 4 7 9 9 10 9 9 10 13 15 17 18 19
23 14 5 15 17 20 21 23 18 11 4 4 7 8 10 10 8 8 10 7 6 5 3 2 3 2 5 3 4 5 2 4 2 2 4 5 4 4 5 3 3 3 5 5 10 11 13 14 11 9 15 16 17 20
17 3 21 24 27 22 19 9 6 6 5 5 6 9 12 12 11 11 8 7 3 6 6 2 3 6 3 3 5 5 4 4 4 6 0 6 3 1 1 3 8 5 5 5 7 9 11 11 14 11 9 13 16 18
17 18 24 24 18 18 6 7 5 5 10 8 9 11 12 12 12 10 9 8 7 7 8 7 5 5 4 3 3 5 5 7 8 5 4 6 2 2 4 5 1 5 6 4 9 3 5 10 11 8 14 16 15 18
22 25 25 17 12 7 4 5 6 5 6 9 10 11 12 10 11 10 8 8 7 7 6 6 6 6 9 9 10 8 5 7 7 0 7 5 7 5 4 4 3 3 1 1 4 7 4 10 10 10 12 14 13 17
23 23 19 7 4 4 4 5 7 5 6 6 10 11 11 10 10 10 8 8 8 6 7 10 12 9 9 9 6 5 5 8 7 4 5 3 2 3 6 5 5 6 3 4 3 1 6 8 9 10 8 8 12 12
22 7 17 12 9 8 4 4 5 6 7 10 10 11 9 9 10 10 9 8 9 9 9 10 12 10 12 10 12 8 8 8 3 7 6 5 5 8 8 11 11 5 3 3 2 4 6 8 6 6 5 11 10 11
20 15 15 11 6 6 5 9 6 6 8 11 13 13 11 10 11 12 10 10 11 10 10 10 9 9 12 13 10 14 12 14 10 5 14 14 9 8 9 10 7 5 3 3 8 6 5 9 5 5 8 10 8 8
14 7 5 7 6 5 6 13 9 8 6 6 7 11 11 11 11 11 11 12 12 11 11 10 11 16 11 15 12 11 13 12 8 7 8 10 8 4 5 1 8 1 4 4 5 4 8 9 6 5 6 8 7 7
11 5 4 5 8 5 4 7 3 5 7 10 11 17 15 12 12 6 6 10 9 10 8 5 3 7 9 10 8 8 12 13 11 10 7 5 6 10 14 12 12 15 7 10 8 6 6 5 5 6 5 5 5 6
4 5 5 7 6 5 6 12 14 14 19 16 17 14 8 6 8 11 12 9 9 6 4 4 5 8 7 7 5 6 9 10 7 8 10 14 8 10 5 8 15 11 8 6 7 6 5 5 9 5 6 4 4 5
7 5 6 6 6 10 11 16 16 16 14 16 16 13 11 11 15 11 8 5 8 5 3 3 6 4 3 4 4 3 4 8 8 6 7 14 16 11 9 10 8 9 8 10 9 8 5 6 8 3 8 6 3 2
6 8 8 12 13 13 10 10 10 6 9 7 6 6 6 4 6 2 7 11 3 2 2 1 3 2 2 4 9 12 16 8 8 11 10 16 12 10 18 7 7 14 14 10 8 5 3 7 7 6 3 5 3 3
9 9 17 12 13 10 14 13 16 18 9 6 7 2 9 5 7 4 4 15 23 29 16 8 1 5 7 7 10 10 10 12 10 7 7 5 11 16 14 14 15 19 16 11 10 9 7 7 8 7 6 5 6 4
10 11 13 19 18 13 14 15 15 13 13 13 9 7 4 2 1 5 8 9 11 18 15 10 13 11 9 11 10 12 8 7 9 10 10 9 8 12 15 17 15 13 12 12 11 10 8 7 7 8 6 7 6 6
15 12 14 14 18 18 14 14 15 12 10 10 6 7 10 4 11 12 12 14 12 8 13 15 18 16 13 8 12 6 10 9 6 10 7 5 4 7 6 13 11 12 14 12 10 9 9 8 8 9 9 10 7 6
7 9 11 13 15 14 13 14 12 12 13 11 11 11 9 3 5 14 19 16 15 16 15 16 12 15 13 13 12 6 9 23 21 19 17 15 6 11 2 9 6 8 7 16 17 13 12 9 13 13 10 8 6 4
6 7 10 15 13 12 10 10 12 11 9 10 10 10 10 11 4 3 16 16 16 14 14 15 13 9 13 15 13 13 11 8 15 20 20 22 25 11 9 9 8 9 4 6 11 14 16 15 13 12 9 8 7 6
6 10 11 8 5 5 7 9 6 9 8 8 11 9 3 4 5 5 12 17 13 12 11 10 10 10 12 12 11 11 11 13 16 15 12 10 12 15 17 17 17 14 14 16 16 13 13 14 13 11 8 7 6 7
Wind_Direction
312 314 316 318 320 321 320 321 322 325 328 332 331 329 326 323 325 315 284 282 253 258 289 285 319 298 301 303 290 328 324 11 10 356 343 352 329 352 303 320 359 333 336 338 241 224 340 325 339 52 311 318 46 53
311 315 317 318 320 325 323 317 317 320 324 325 328 326 324 320 318 311 287 296 269 240 275 287 279 277 276 287 301 57 294 300 342 327 6 311 315 297 313 23 358 11 22 339 7 31 287 299 8 17 354 26 38 35
310 312 313 313 315 323 322 318 315 315 320 323 324 324 321 316 314 295 279 279 269 269 287 282 227 243 232 232 190 177 231 311 303 359 309 284 288 291 331 37 345 345 7 23 15 357 325 320 6 18 17 7 1 18
306 310 313 311 312 316 316 319 316 316 320 321 322 322 319 317 311 298 269 257 245 278 282 302 132 222 205 165 182 200 210 251 278 274 242 250 242 207 329 84 38 8 353 346 1 1 352 358 339 336 7 1 356 358
308 310 310 311 314 314 312 311 311 314 316 318 319 318 317 321 312 293 260 249 234 248 301 306 302 274 201 181 191 199 201 238 270 267 228 265 278 354 100 237 45 1 13 13 47 291 304 318 300 315 347 345 352 343
312 312 313 315 315 320 318 314 312 314 315 315 316 320 322 321 312 272 265 205 217 229 294 300 331 199 219 223 218 210 209 213 246 266 293 303 12 332 17 45 11 8 359 339 315 327 279 292 303 321 314 315 357 312
312 314 313 313 319 321 320 316 314 313 316 314 316 322 320 312 253 252 15 281 179 176 249 275 278 197 185 221 222 226 210 232 250 291 275 302 331 351 34 358 345 338 348 341 329 348 343 342 310 307 329 318 325 331
306 309 310 311 315 319 322 322 320 316 316 314 317 320 321 314 217 253 222 191 189 226 231 268 268 196 171 234 269 222 204 194 220 243 271 322 356 22 81 336 316 321 356 342 343 311 298 324 355 359 347 332 326 340
310 310 308 306 310 313 318 323 321 320 315 316 312 311 289 238 201 131 202 208 212 259 278 241 259 280 169 242 249 254 234 235 273 255 239 60 11 39 315 332 346 1 195 307 333 336 354 5 358 4 354 345 341 337
315 316 314 317 318 317 317 320 322 322 324 317 310 219 174 43 346 68 176 179 193 218 230 257 267 260 273 128 311 281 272 256 229 237 103 60 250 209 233 326 340 345 302 358 15 11 12 12 12 356 2 356 358 2
322 318 315 314 319 321 321 323 322 329 342 337 327 340 343 337 275 202 229 212 176 221 214 238 245 240 178 325 168 265 293 291 254 216 201 139 151 91 114 114 167 45 43 63 28 16 20 10 5 18 15 359 356 354
323 321 320 316 314 314 323 321 319 334 329 306 292 302 296 266 233 226 234 213 202 231 163 247 157 255 111 74 32 291 278 309 262 334 188 171 128 126 85 69 82 75 40 6 78 85 48 53 42 27 30 10 355 355
323 319 322 321 316 313 323 339 338 335 320 249 194 237 234 231 231 222 212 234 223 198 237 194 206 179 165 118 138 295 279 251 336 286 273 127 156 118 97 56 35 41 32 358 66 63 38 52 55 46 36 25 12 8
323 319 322 325 339 343 334 333 335 336 297 243 222 237 225 213 229 214 247 265 92 353 307 265 257 155 53 139 116 253 243 255 277 253 187 131 227 130 116 69 40 350 18 26 57 56 17 51 45 48 59 50 31 19
326 327 328 348 349 333 323 319 323 309 275 265 226 244 235 238 271 280 246 268 278 230 279 301 306 258 167 175 213 263 270 262 229 244 163 167 140 141 158 141 76 348 31 10 25 56 49 29 59 50 42 45 36 32
328 332 50 341 326 316 307 313 295 223 251 250 234 259 270 277 270 251 241 240 253 258 219 254 257 227 217 195 177 205 240 230 252 254 278 145 100 79 120 150 117 5 27 22 360 34 35 34 47 45 51 26 35 35
332 268 324 322 320 319 313 291 244 208 247 245 249 250 262 280 289 292 294 301 230 226 222 201 231 226 193 221 195 178 209 238 236 239 7 345 100 80 135 180 165 177 105 80 43 17 25 28 51 22 40 41 41 33
306 312 311 314 329 324 295 212 270 232 224 240 255 261 264 269 275 270 257 263 260 241 246 219 221 243 228 204 237 217 211 235 252 250 248 134 232 165 236 195 84 83 114 108 121 55 33 36 46 17 15 29 35 29
307 313 317 320 315 296 277 217 227 260 256 264 262 267 270 270 275 275 263 267 269 257 254 248 241 243 250 248 251 270 196 232 245 255 301 200 187 220 242 129 199 50 4 267 129 142 91 80 61 42 20 28 3 42
309 314 322 302 265 255 261 254 234 250 263 277 288 286 285 277 272 270 252 262 251 228 243 246 249 253 266 285 282 253 262 191 212 208 276 136 106 33 232 190 174 207 228 297 105 182 111 81 61 56 30 23 33 29
312 292 321 289 260 235 267 268 245 250 263 259 267 282 289 294 288 277 244 237 238 241 240 245 253 258 272 272 283 298 297 296 304 267 201 206 145 160 336 255 196 206 206 275 285 114 79 88 75 88 39 57 40 25
288 297 291 283 247 227 249 244 246 295 299 283 285 281 280 283 286 283 288 268 236 229 235 243 252 254 259 263 257 255 256 262 226 180 119 166 174 173 210 203 190 208 203 184 248 99 97 74 30 14 64 73 68 54
275 264 234 240 236 243 260 229 240 241 252 276 291 281 261 248 262 259 248 247 257 252 245 251 254 256 271 280 282 282 281 250 249 198 208 220 194 190 131 143 166 210 171 202 86 72 103 122 73 33 37 64 59 44
257 224 239 232 213 254 238 254 250 264 274 263 262 266 275 291 290 271 253 272 247 253 256 255 351 250 246 249 253 258 261 233 233 240 215 229 173 218 173 177 174 211 142 170 136 123 113 125 136 85 37 25 37 61
252 235 236 246 229 233 252 259 255 255 262 269 276 275 274 291 287 287 281 270 260 276 279 160 239 252 255 261 268 239 223 243 229 231 228 115 106 104 204 202 221 147 165 138 129 145 159 166 125 83 89 41 10 66
233 246 222 225 231 237 247 264 271 278 271 271 264 258 262 269 263 254 268 261 285 167 179 229 258 262 286 315 316 278 247 253 253 223 226 164 173 174 162 219 218 153 136 152 166 205 159 120 105 105 131 139 76 20
230 247 254 258 264 274 277 273 280 285 297 285 297 319 237 238 231 226 26 8 342 64 201 269 276 23 30 351 354 333 325 292 256 260 242 185 153 199 247 175 182 159 174 160 142 152 162 141 134 139 154 135 98 64
227 244 255 263 270 279 274 270 279 291 281 283 326 272 340 28 10 324 347 339 346 342 330 261 2 3 351 342 323 305 309 339 318 233 112 125 183 190 160 109 114 139 139 138 134 147 153 145 142 144 140 122 111 78
236 246 259 264 268 272 274 271 269 263 260 266 256 278 279 216 177 317 351 358 348 328 330 8 18 1 335 325 304 312 357 43 24 329 218 145 205 195 147 134 139 139 134 126 125 126 119 126 135 133 128 114 109 95
266 260 253 253 259 263 265 265 267 267 271 274 267 236 258 265 53 36 5 340 329 323 326 347 359 2 342 357 334 356 34 45 80 67 358 309 42 351 182 150 162 168 150 151 144 129 128 127 138 131 131 94 81 93
258 275 278 270 263 262 257 263 262 280 276 271 269 261 250 154 89 43 25 1 351 10 21 12 8 27 25 42 36 44 50 40 23 26 23 359 258 231 246 152 165 17 198 178 164 168 168 155 106 97 97 99 98 103
248 252 258 263 269 271 257 252 265 244 251 271 280 283 275 248 85 59 17 14 20 14 10 4 10 17 26 45 52 48 49 41 33 34 38 53 41 58 101 113 114 121 306 89 116 111 107 108 107 107 112 120 124 120
265 259 259 268 265 263 243 222 250 272 274 261 253 250 25 53 70 33 28 24 21 3 349 345 9 25 38 55 62 61 57 57 59 61 70 63 63 61 64 76 75 78 81 86 90 99 105 105 102 104 110 117 119 119